Regional Weather Roundup
Issued by NWS

Home | Current Version | Previous Version | Graphics & Text | Print | Product List | Glossary On
Versions: 1 2 3 4 5 6 7 8 9 10 11 12 13 14 15 16 17 18 19 20 21 22 23 24 25 26 27 28 29 30 31 32 33 34 35 36 37 38 39 40 41 42 43 44 45 46 47 48 49 50
000
ASUS45 KPSR 121910
RWRAZ

ARIZONA HOURLY REGIONAL WEATHER ROUNDUP
NATIONAL WEATHER SERVICE PHOENIX AZ
1200 PM MST FRI FEB 12 2016

NOTE: FAIR INDICATES FEW OR NO CLOUDS BELOW 12,000 FEET WITH NO
SIGNIFICANT WEATHER AND/OR OBSTRUCTIONS TO VISIBILITY.

AZZ001>003-036-122000-
NORTHWEST ARIZONA

CITY           SKY/WX    TMP DP  RH WIND       PRES   REMARKS
BULLHEAD CITY  SUNNY     72  27  18 N22G28    30.19F
KINGMAN        SUNNY     66  22  18 N5        30.27F
$$

AZZ004>008-015-016-018-122000-
NORTH CENTRAL ARIZONA

CITY           SKY/WX    TMP DP  RH WIND       PRES   REMARKS
GRAND CANYON   SUNNY     64  12  13 S7        30.41F
WILLIAMS       SUNNY     64  10  12 SE7       30.45F
PRESCOTT       SUNNY     66  21  18 N5        30.33F
FLAGSTAFF      SUNNY     57  18  21 NE8       30.42F
PAYSON         SUNNY     70  16  12 CALM      30.34F
PAGE           SUNNY     48  31  51 N5        30.41F
$$

AZZ009>014-017-122000-
NORTHEAST ARIZONA

CITY           SKY/WX    TMP DP  RH WIND       PRES   REMARKS
WINSLOW        SUNNY     54  21  27 VRB5      30.39F
SAINT JOHNS    SUNNY     63  18  17 NE6       30.37F
WINDOW ROCK    SUNNY     57   0  10 SW5       30.42F
SHOW LOW       SUNNY     57  19  23 CALM      30.40F
$$

AZZ023-122000-
GREATER PHOENIX AREA

CITY           SKY/WX    TMP DP  RH WIND       PRES   REMARKS
PHOENIX        SUNNY     77  27  15 E8        30.15F
BUCKEYE        SUNNY     72  37  28 CALM      30.18F
GLENDALE       SUNNY     64  32  29 CALM      30.18F
LUKE AFB       SUNNY     72  32  23 SE5       30.15F
DEER VALLEY    SUNNY     73  30  20 CALM      30.16F
SCOTTSDALE     SUNNY     74  30  19 VRB3      30.18F
MESA-GATEWAY   SUNNY     70  32  24 CALM      30.18F
CHANDLER       SUNNY     72  34  25 CALM      30.17F
$$

AZZ027-028-122000-
SOUTHWEST MARICOPA COUNTY AND PINAL COUNTY

CITY           SKY/WX    TMP DP  RH WIND       PRES   REMARKS
CASA GRANDE    SUNNY     73  27  17 E7        30.17F
GILA BEND      SUNNY     74  36  25 N10       30.13F
$$

AZZ503-504-507>509-122000-
SOUTHEAST ARIZONA

CITY           SKY/WX    TMP DP  RH WIND       PRES   REMARKS
TUCSON         SUNNY     77  19  11 SE3       30.20F
DAVIS-MONTHAN  SUNNY     76  25  15 CALM      30.18F
RYAN FIELD     SUNNY     77  28  16 E6        30.19F
NOGALES        SUNNY     78  14   9 W5        30.23F
SIERRA VISTA   SUNNY     74   7   7 E13G18    30.29F
DOUGLAS        SUNNY     73  15  11 MISG      30.28F
SAFFORD        SUNNY     68  18  14 S8        30.27F
$$

AZZ020-021-025-026-031-122000-
SOUTHWEST ARIZONA

CITY           SKY/WX    TMP DP  RH WIND       PRES   REMARKS
YUMA           MOSUNNY   78  29  16 N9        30.13F
$$

CAZ031-033-041-043-047-048-061-122000-
SOUTHERN CALIFORNIA

CITY           SKY/WX    TMP DP  RH WIND       PRES   REMARKS
DOWNTOWN L.A.  SUNNY     80  33  18 CALM      30.10F
L.A. AIRPORT   PTSUNNY   74  44  34 VRB5      30.11F
SAN DIEGO      MOSUNNY   78  29  16 W3        30.11F
BURBANK        SUNNY     77  35  21 CALM      30.12F
ONTARIO        MOSUNNY   76  27  16 SW3       30.13F
RIVERSIDE      MOSUNNY   81  30  15 CALM      30.12F
PALM SPRINGS   SUNNY     81  22  11 CALM      30.16F
EL CENTRO NAS  MOSUNNY   79  26  14 N5        30.15F
IMPERIAL       SUNNY     77  29  17 NW6       30.12F
BLYTHE         SUNNY     72  26  18 CALM      30.17F
NEEDLES        SUNNY     70  29  21 VRB7      30.20F
$$

NVZ020-UTZ003-122000-
SOUTHERN NEVADA-UTAH

CITY           SKY/WX    TMP DP  RH WIND       PRES   REMARKS
LAS VEGAS      MOSUNNY   65  25  22 N3        30.23F
SALT LAKE CITY FOG       30  27  88 N5        30.43F VSB 1   WCI  25
$$

NMZ009-TXZ055-122000-
NEW MEXICO-WEST TEXAS

CITY           SKY/WX    TMP DP  RH WIND       PRES   REMARKS
ALBUQUERQUE    SUNNY     59  18  20 N7        30.38F
EL PASO        SUNNY     67  13  12 SW5       30.31F
$$


........................KEY........................
SKY/WX - SKY CONDITION/WEATHER
TMP    - TEMPERATURE IN FAHRENHEIT
DP     - DEW POINT IN FAHRENHEIT
RH     - RELATIVE HUMIDITY IN PERCENT
WIND   - DIRECTION AND SPEED IN MILES PER HOUR (MPH)
VRB    - VARIABLE WIND DIRECTION
PRES   - MEAN SEA LEVEL PRESSURE IN INCHES OF MERCURY
         F - FALLING PRESSURE   R - RISING PRESSURE
         S - STEADY PRESSURE
VSB    - VISIBILITY IN MILES
HX     - HEAT INDEX IN FAHRENHEIT
WCI    - WIND CHILL INDEX IN FAHRENHEIT
TC     - TEMPERATURE IN CELSIUS WHICH IS ALSO KNOWN AS
         TEMPERATURE IN CENTIGRADE
AFB    - AIR FORCE BASE
         LUKE AFB IS LUKE AIR FORCE BASE
         DAVIS-MONTHAN IS DAVIS-MONTHAN AIR FORCE BASE
NAS    - NAVAL AIR STATION
         EL CENTRO NAS IS EL CENTRO NAVAL AIR STATION
N/A    - NOT AVAILABLE




USA.gov is the U.S. government's official web portal to all federal, state and local government web resources and services.